Regional Weather Roundup
Issued by NWS Glasgow, MT

Home | Current Version | Previous Version | Text Only | Print | Product List | Glossary On
Versions: 1 2 3 4 5 6 7 8 9 10 11 12 13 14 15 16 17 18 19 20 21 22 23 24 25 26 27 28 29 30 31 32
000
ASUS45 KGGW 221515
RWRGGW
HOURLY WEATHER ROUNDUP FOR NORTHEAST MONTANA
NATIONAL WEATHER SERVICE GLASGOW MONTANA
900 AM MDT WED OCT 22 2014

NOTE: "FAIR" INDICATES FEW OR NO CLOUDS BELOW 12,000 FEET WITH NO
SIGNIFICANT WEATHER AND/OR OBSTRUCTIONS TO VISISBILITY.

NORTHEAST MONTANA


CITY           SKY/WX    TMP DP  RH WIND       PRES   REMARKS
GLASGOW        NOT AVBL
PLENTYWOOD       N/A     48  43  82 W13         N/A
WOLF POINT     SUNNY     53  39  59 W14       29.84R
JORDAN           N/A     47  34  60 W12       29.91R
WINNETT          N/A     41  33  73 S3          N/A
SIDNEY         SUNNY     50  41  71 S7        29.86R
GLENDIVE       NOT AVBL
MALTA            N/A     51  39  63 W12         N/A
SCOBEY           N/A     48  40  73 MISG      29.78R

FORT PECK REPORTS


CITY           SKY/WX    TMP DP  RH WIND       PRES   REMARKS
FORT PECK        N/A     52  37  56 SW18        N/A
THE PINES        N/A     50  35  56 SW8         N/A

SOUTHEAST MONTANA


CITY           SKY/WX    TMP DP  RH WIND       PRES   REMARKS
BILLINGS       SUNNY     45  27  49 SW13      30.02R
MILES CITY     NOT AVBL
BAKER          NOT AVBL
LIVINGSTON     NOT AVBL

CENTRAL MONTANA


CITY           SKY/WX    TMP DP  RH WIND       PRES   REMARKS
HAVRE          CLEAR     46  36  68 SW20      29.90R
LEWISTOWN      NOT AVBL
GREAT FALLS    NOT AVBL
CUT BANK       NOT AVBL
HELENA         NOT AVBL
BUTTE          NOT AVBL
BOZEMAN        SUNNY     31  29  92 SE7       30.10S

WESTERN MONTANA


CITY           SKY/WX    TMP DP  RH WIND       PRES   REMARKS
MISSOULA       FOG       33  33 100 W5        30.07S VSB 1/4
KALISPELL      NOT AVBL

NORTH DAKOTA


CITY           SKY/WX    TMP DP  RH WIND       PRES   REMARKS
WILLISTON      NOT AVBL
DICKINSON      NOT AVBL
MINOT          NOT AVBL
BISMARCK       NOT AVBL

SOUTHERN SASKATCHEWAN


CITY           SKY/WX    TMP DP  RH WIND       PRES   REMARKS
REGINA         MOSUNNY   46  45  93 W9        29.67S
MOOSE JAW      PTSUNNY  N/A N/A N/A NW13        N/A
ESTEVAN        MOSUNNY   46  43  87 SW15      29.73R
SWIFT CURRENT  LGT RAIN  45  43  93 W13       29.77S




USA.gov is the U.S. government's official web portal to all federal, state and local government web resources and services.